Location: Puketoi
(40.5833°S, 176.0167°E)
Time: 14:11:41
(UTC+00:00)

Cosmos 1025 Rocket - Pass Details

Date: 08 February 2023
Orbit: 592 x 616 km, 82.5° (Epoch: 31 March)

Event Time Altitude Azimuth Distance (km) Brightness Sun altitude
Exits shadow 16:30:11 - 349° (N) 2,393 5.7 -11.5°
Reaches altitude 10° 16:31:12 10° 349° (NNW) 1,980 5.3 -11.3°
Maximum altitude 16:35:36 77° 262° (W) 642 3.0 -10.6°
Drops below altitude 10° 16:40:02 10° 175° (S) 1,996 6.2 -9.9°
Sets 16:42:16 0° 173° (S) 2,905 7.1 -9.5°
